Skip Page Navigation
NASA JPL Caltech
NASA Logo - Jet Propulsion Laboratory + View the NASA Portal
+ Center for Near-Earth Object Studies
JPL Home Earth Solar System Stars & Galaxies Technology
JPL Solar System Dynamics
BODIES ORBITS EPHEMERIDES TOOLS PHYSICAL DATA DISCOVERY FAQ SITE MAP
JPL Small-Body Database Browser
Search: [ help ]  
324699 (2007 ED75)
Classification: Main-belt Asteroid          SPK-ID: 2324699
Ephemeris | Orbit Diagram | Orbital Elements | Mission Design | Physical Parameters | Discovery Circumstances | Close-Approach Data ]

[ show orbit diagram ]
Orbital Elements at Epoch 2459000.5 (2020-May-31.0) TDB
Reference: JPL 12 (heliocentric ecliptic J2000)
 Element Value Uncertainty (1-sigma)   Units 
e .09633907938113885 4.7061e-08  
a 3.007434950775097 3.71e-08 au
q 2.717701436318764 1.3397e-07 au
i 8.614501185517941 1.2625e-05 deg
node 3.42136686541066 3.166e-05 deg
peri 265.2869120363929 8.6338e-05 deg
M 121.507778341159 8.1853e-05 deg
tp 2458357.524580906646
(2018-Aug-27.02458091)
0.0004338 TDB
period 1904.990396776927
5.22
3.525e-05
9.651e-08
d
yr
n .1889773305991924 3.4969e-09 deg/d
Q 3.297168465231431 4.0674e-08 au
  Orbit Determination Parameters
   # obs. used (total)      281  
   data-arc span      9554 days (26.16 yr)  
   first obs. used      1993-09-20  
   last obs. used      2019-11-17  
   planetary ephem.      DE431  
   SB-pert. ephem.      SB431-N16  
   condition code      0  
   norm. resid. RMS      .42463  
   source      ORB  
   producer      Otto Matic  
   solution date      2019-Dec-14 19:32:49  

Additional Information
 Earth MOID = 1.71975 au 
 Jupiter MOID = 1.84803 au 
 T_jup = 3.227 
[ show covariance matrix ]

Ephemeris | Orbit Diagram | Orbital Elements | Mission Design | Physical Parameters | Discovery Circumstances | Close-Approach Data ]

Physical Parameter Table
Parameter Symbol Value Units Sigma Reference Notes
absolute magnitude H 15.6   n/a MPO418667  

324699 (2007 ED75)          Discovered 2007-Mar-10 by Spacewatch at Kitt Peak
Reference: 20120406/Numbers.arcLast Updated: 2012-04-09

[ show close-approach data ]
Ephemeris | Orbit Diagram | Orbital Elements | Mission Design | Physical Parameters | Discovery Circumstances | Close-Approach Data ]
ABOUT SSD CREDITS/AWARDS PRIVACY/COPYRIGHT GLOSSARY LINKS
FirstGov 2020-Oct-29 03:05 UT
(server date/time)  
NASA Home Page
Site Manager:   Ryan S. Park
Webmaster  Alan B. Chamberlin